RYR1TW EIDW-LEGE

Flight info

Callsign RYR1TW
Flight time N/A
Altitude 35000
Route PESIT2J PESIT DCT BAKUR DCT GUBJE DCT GISOK DCT TACQI DCT MANIG DCT KORER UM616 TUPAR DCT CNA DCT SECHE DCT GAI DCT PPG A27 KANIG
Aircraft B738/M-SDE2E3FGHIRWXY/LB1

Departure

Time N/A
Airport Dublin Airport (EIDW)

Arrival

Time 2026-05-06 10:29
Airport Girona-Costa Brava Airport (LEGE)
Time Latitude Longitude Altitude Speed Heading
2026-05-06 09:23 47.70439 -2.50351 34931 ft 446 kts 154°
2026-05-06 09:23 47.67754 -2.48053 34952 ft 445 kts 143°
2026-05-06 09:23 47.65415 -2.45076 34942 ft 443 kts 131°
2026-05-06 09:24 47.63390 -2.41636 34958 ft 443 kts 129°
2026-05-06 09:24 47.59416 -2.34651 34947 ft 443 kts 129°
2026-05-06 09:25 47.55410 -2.27697 34941 ft 444 kts 129°
2026-05-06 09:25 47.51317 -2.20702 34955 ft 450 kts 130°
2026-05-06 09:26 47.47179 -2.13671 34949 ft 456 kts 130°
2026-05-06 09:26 47.43006 -2.06599 34940 ft 457 kts 130°
2026-05-06 09:27 47.38827 -1.99528 34935 ft 457 kts 130°
2026-05-06 09:27 47.34643 -1.92470 34937 ft 456 kts 130°
2026-05-06 09:28 47.30469 -1.85433 34937 ft 455 kts 130°
2026-05-06 09:28 47.26311 -1.78430 34936 ft 454 kts 130°
2026-05-06 09:29 47.22161 -1.71456 34940 ft 452 kts 130°
2026-05-06 09:29 47.18018 -1.64510 34948 ft 451 kts 130°
2026-05-06 09:30 47.13649 -1.57909 34925 ft 450 kts 139°
2026-05-06 09:30 47.08768 -1.52266 34930 ft 444 kts 141°
2026-05-06 09:31 47.03881 -1.46758 34943 ft 443 kts 141°
2026-05-06 09:31 46.99007 -1.41234 34942 ft 443 kts 141°
2026-05-06 09:32 46.94136 -1.35688 34940 ft 444 kts 141°
2026-05-06 09:32 46.89264 -1.30139 34942 ft 444 kts 141°
2026-05-06 09:33 46.84382 -1.24590 34948 ft 445 kts 141°
2026-05-06 09:33 46.79495 -1.19048 34935 ft 445 kts 141°
2026-05-06 09:34 46.75392 -1.14408 34931 ft 446 kts 141°
2026-05-06 09:34 46.70489 -1.08873 34931 ft 446 kts 141°
2026-05-06 09:35 46.65575 -1.03340 34933 ft 447 kts 141°
2026-05-06 09:35 46.60645 -0.97803 34926 ft 447 kts 141°
2026-05-06 09:36 46.55718 -0.92280 34917 ft 448 kts 141°
2026-05-06 09:36 46.50776 -0.86755 34913 ft 448 kts 141°
2026-05-06 09:37 46.45837 -0.81245 34913 ft 448 kts 142°
2026-05-06 09:37 46.40890 -0.75740 34908 ft 448 kts 142°
2026-05-06 09:38 46.35942 -0.70248 34906 ft 448 kts 142°
2026-05-06 09:38 46.30992 -0.64764 34907 ft 449 kts 142°
2026-05-06 09:39 46.26026 -0.59277 34908 ft 449 kts 142°
2026-05-06 09:39 46.21053 -0.53793 34896 ft 450 kts 142°
2026-05-06 09:40 46.16080 -0.48324 34890 ft 448 kts 142°
2026-05-06 09:40 46.08660 -0.40187 34888 ft 446 kts 142°
2026-05-06 09:41 46.03732 -0.34799 34889 ft 444 kts 143°
2026-05-06 09:41 45.98818 -0.29437 34891 ft 443 kts 143°
2026-05-06 09:42 45.93906 -0.24090 34894 ft 442 kts 143°
2026-05-06 09:42 45.88999 -0.18761 34897 ft 442 kts 143°
2026-05-06 09:43 45.84085 -0.13436 34899 ft 443 kts 143°
2026-05-06 09:43 45.79152 -0.08102 34898 ft 445 kts 143°
2026-05-06 09:44 45.74202 -0.02764 34905 ft 446 kts 143°
2026-05-06 09:44 45.69238 0.02579 34917 ft 447 kts 143°
2026-05-06 09:45 45.64255 0.07930 34915 ft 448 kts 143°
2026-05-06 09:45 45.59258 0.13284 34907 ft 449 kts 143°
2026-05-06 09:46 45.54254 0.18632 34904 ft 450 kts 144°
2026-05-06 09:46 45.49279 0.23938 34900 ft 450 kts 144°
2026-05-06 09:47 45.44269 0.29269 34895 ft 449 kts 144°
2026-05-06 09:47 45.39261 0.34585 34899 ft 449 kts 144°
2026-05-06 09:48 45.34255 0.39888 34895 ft 449 kts 144°
2026-05-06 09:48 45.29247 0.45181 34892 ft 448 kts 144°
2026-05-06 09:49 45.24246 0.50454 34907 ft 448 kts 144°
2026-05-06 09:49 45.19245 0.55716 34902 ft 447 kts 145°
2026-05-06 09:50 45.14249 0.60961 34904 ft 447 kts 145°
2026-05-06 09:50 45.09253 0.66193 34914 ft 447 kts 145°
2026-05-06 09:51 45.04257 0.71414 34912 ft 447 kts 145°
2026-05-06 09:51 44.99255 0.76630 34910 ft 447 kts 146°
2026-05-06 09:52 44.94247 0.81841 34916 ft 448 kts 146°
2026-05-06 09:52 44.89220 0.87059 34902 ft 449 kts 146°
2026-05-06 09:53 44.84184 0.92275 34909 ft 450 kts 146°
2026-05-06 09:53 44.79136 0.97493 34908 ft 451 kts 146°
2026-05-06 09:54 44.74076 1.02711 34902 ft 451 kts 146°
2026-05-06 09:54 44.69006 1.07928 34907 ft 452 kts 146°
2026-05-06 09:55 44.63924 1.13146 34906 ft 453 kts 146°
2026-05-06 09:55 44.58835 1.18359 34909 ft 453 kts 146°
2026-05-06 09:56 44.53740 1.23567 34911 ft 453 kts 147°
2026-05-06 09:56 44.48647 1.28761 34920 ft 453 kts 147°
2026-05-06 09:57 44.43552 1.33946 34917 ft 452 kts 147°
2026-05-06 09:57 44.38464 1.39113 34922 ft 451 kts 147°
2026-05-06 09:58 44.33384 1.44261 34928 ft 450 kts 147°
2026-05-06 09:58 44.28316 1.49385 34933 ft 449 kts 147°
2026-05-06 09:59 44.23253 1.54492 34840 ft 451 kts 147°
2026-05-06 09:59 44.20713 1.57049 34722 ft 450 kts 148°
2026-05-06 09:59 44.18172 1.59606 34529 ft 450 kts 148°
2026-05-06 10:00 44.15637 1.62154 34295 ft 449 kts 148°
2026-05-06 10:00 44.13103 1.64698 34076 ft 449 kts 148°
2026-05-06 10:00 44.10574 1.67235 33826 ft 449 kts 148°
2026-05-06 10:00 44.08029 1.69784 33551 ft 449 kts 148°
2026-05-06 10:01 44.05491 1.72325 33276 ft 449 kts 148°
2026-05-06 10:01 44.02954 1.74861 33008 ft 451 kts 148°
2026-05-06 10:01 44.00397 1.77414 32763 ft 454 kts 148°
2026-05-06 10:01 43.97833 1.79973 32495 ft 455 kts 149°
2026-05-06 10:02 43.95254 1.82535 32242 ft 456 kts 149°
2026-05-06 10:02 43.92629 1.84992 31988 ft 455 kts 152°
2026-05-06 10:02 43.89968 1.87361 31732 ft 454 kts 153°
2026-05-06 10:02 43.87314 1.89676 31342 ft 447 kts 153°
2026-05-06 10:03 43.84683 1.91959 30744 ft 447 kts 153°
2026-05-06 10:03 43.82041 1.94254 30103 ft 449 kts 153°
2026-05-06 10:03 43.79396 1.96560 29476 ft 448 kts 153°
2026-05-06 10:03 43.76773 1.98859 28841 ft 445 kts 153°
2026-05-06 10:04 43.74147 2.01163 28248 ft 451 kts 153°
2026-05-06 10:04 43.71477 2.03503 27658 ft 457 kts 153°
2026-05-06 10:04 43.68770 2.05877 27080 ft 461 kts 153°
2026-05-06 10:04 43.66065 2.08251 26539 ft 461 kts 152°
2026-05-06 10:05 43.63365 2.10621 26071 ft 459 kts 152°
2026-05-06 10:05 43.60675 2.12981 25613 ft 457 kts 152°
2026-05-06 10:05 43.58002 2.15322 25147 ft 451 kts 152°
2026-05-06 10:05 43.55376 2.17620 24713 ft 444 kts 152°
2026-05-06 10:06 43.52785 2.19884 24265 ft 438 kts 152°
2026-05-06 10:06 43.50230 2.22113 23842 ft 432 kts 152°
2026-05-06 10:06 43.47713 2.24306 23475 ft 424 kts 151°
2026-05-06 10:06 43.45239 2.26459 23036 ft 418 kts 152°
2026-05-06 10:07 43.42804 2.28575 22629 ft 412 kts 152°
2026-05-06 10:07 43.40398 2.30664 22213 ft 406 kts 152°
2026-05-06 10:07 43.38021 2.32725 21784 ft 401 kts 151°
2026-05-06 10:07 43.35683 2.34752 21374 ft 395 kts 152°
2026-05-06 10:08 43.33370 2.36754 20975 ft 390 kts 152°
2026-05-06 10:08 43.31086 2.38729 20588 ft 385 kts 152°
2026-05-06 10:08 43.28833 2.40676 20201 ft 381 kts 152°
2026-05-06 10:08 43.26628 2.42579 19831 ft 377 kts 152°
2026-05-06 10:09 43.24415 2.44488 19456 ft 374 kts 152°
2026-05-06 10:09 43.22227 2.46374 19086 ft 370 kts 152°
2026-05-06 10:09 43.20058 2.48242 18717 ft 367 kts 152°
2026-05-06 10:09 43.17903 2.50096 18357 ft 364 kts 152°
2026-05-06 10:10 43.15765 2.51934 17954 ft 361 kts 152°
2026-05-06 10:10 43.13647 2.53753 17545 ft 359 kts 152°
2026-05-06 10:10 43.11540 2.55562 17139 ft 356 kts 152°
2026-05-06 10:10 43.09446 2.57358 16748 ft 354 kts 152°
2026-05-06 10:11 43.07551 2.58981 16373 ft 352 kts 152°
2026-05-06 10:11 43.05488 2.60747 15990 ft 349 kts 152°
2026-05-06 10:11 43.03434 2.62506 15599 ft 347 kts 152°
2026-05-06 10:11 43.01395 2.64250 15216 ft 344 kts 152°
2026-05-06 10:12 42.99375 2.65976 14844 ft 342 kts 152°
2026-05-06 10:12 42.97364 2.67693 14467 ft 339 kts 152°
2026-05-06 10:12 42.95367 2.69396 14121 ft 337 kts 151°
2026-05-06 10:12 42.93387 2.71085 13748 ft 335 kts 151°
2026-05-06 10:13 42.91412 2.72767 13352 ft 333 kts 151°
2026-05-06 10:13 42.89450 2.74437 12954 ft 333 kts 151°
2026-05-06 10:13 42.87489 2.76104 12567 ft 331 kts 151°
2026-05-06 10:13 42.86028 2.77345 12272 ft 330 kts 151°
2026-05-06 10:14 42.84685 2.78487 12010 ft 329 kts 151°
2026-05-06 10:14 42.82713 2.80050 11624 ft 326 kts 157°
2026-05-06 10:14 42.80653 2.81268 11415 ft 318 kts 161°
2026-05-06 10:14 42.78621 2.82326 11293 ft 310 kts 162°
2026-05-06 10:15 42.76607 2.83345 11155 ft 308 kts 162°
2026-05-06 10:15 42.74580 2.84375 11044 ft 314 kts 162°
2026-05-06 10:15 42.72524 2.85432 10927 ft 317 kts 162°
2026-05-06 10:15 42.70459 2.86504 10800 ft 318 kts 162°
2026-05-06 10:16 42.69096 2.87217 10715 ft 317 kts 162°
2026-05-06 10:16 42.67043 2.88294 10597 ft 316 kts 162°
2026-05-06 10:16 42.64990 2.89374 10461 ft 315 kts 162°
2026-05-06 10:16 42.62949 2.90448 10344 ft 315 kts 162°
2026-05-06 10:17 42.60908 2.91521 10225 ft 314 kts 162°
2026-05-06 10:17 42.58874 2.92591 10098 ft 312 kts 162°
2026-05-06 10:17 42.56880 2.93641 10005 ft 302 kts 162°
2026-05-06 10:17 42.54955 2.94654 9952 ft 291 kts 162°
2026-05-06 10:18 42.53088 2.95635 9961 ft 287 kts 162°
2026-05-06 10:18 42.51218 2.96614 9982 ft 289 kts 162°
2026-05-06 10:18 42.49338 2.97592 9953 ft 290 kts 165°
2026-05-06 10:18 42.47377 2.97971 9811 ft 282 kts 188°
2026-05-06 10:19 42.45484 2.97438 9722 ft 276 kts 198°
2026-05-06 10:19 42.43661 2.96721 9546 ft 270 kts 199°
2026-05-06 10:19 42.41878 2.95999 9374 ft 265 kts 199°
2026-05-06 10:19 42.40125 2.95293 9232 ft 261 kts 199°
2026-05-06 10:20 42.38388 2.94603 9097 ft 261 kts 199°
2026-05-06 10:20 42.36641 2.93916 8957 ft 261 kts 199°
2026-05-06 10:20 42.34894 2.93232 8815 ft 261 kts 199°
2026-05-06 10:20 42.33147 2.92554 8659 ft 262 kts 199°
2026-05-06 10:21 42.31413 2.91883 8507 ft 256 kts 199°
2026-05-06 10:21 42.29726 2.91231 8360 ft 249 kts 199°
2026-05-06 10:21 42.28078 2.90597 8208 ft 243 kts 199°
2026-05-06 10:21 42.26474 2.89979 8067 ft 236 kts 199°
2026-05-06 10:22 42.24904 2.89373 7808 ft 236 kts 199°
2026-05-06 10:22 42.23312 2.88759 7434 ft 240 kts 198°
2026-05-06 10:22 42.21678 2.88130 6994 ft 248 kts 198°
2026-05-06 10:22 42.19998 2.87483 6543 ft 255 kts 198°
2026-05-06 10:23 42.18298 2.86832 6073 ft 251 kts 198°
2026-05-06 10:23 42.16651 2.86200 5575 ft 247 kts 197°
2026-05-06 10:23 42.14994 2.85565 5099 ft 242 kts 197°
2026-05-06 10:23 42.13419 2.84936 4943 ft 227 kts 198°
2026-05-06 10:24 42.11961 2.84361 4665 ft 215 kts 197°
2026-05-06 10:24 42.10555 2.83821 4370 ft 205 kts 197°
2026-05-06 10:24 42.09219 2.83312 4109 ft 195 kts 197°
2026-05-06 10:24 42.07971 2.82838 3870 ft 179 kts 196°
2026-05-06 10:25 42.06811 2.82399 3621 ft 167 kts 197°
2026-05-06 10:25 42.05719 2.81984 3452 ft 157 kts 195°
2026-05-06 10:25 42.04665 2.81584 3239 ft 156 kts 195°
2026-05-06 10:25 42.03643 2.81197 3008 ft 149 kts 196°
2026-05-06 10:26 42.02657 2.80821 2798 ft 144 kts 196°
2026-05-06 10:26 42.01698 2.80457 2608 ft 143 kts 195°
2026-05-06 10:26 42.00732 2.80090 2430 ft 145 kts 195°
2026-05-06 10:26 41.99758 2.79720 2215 ft 144 kts 194°
2026-05-06 10:27 41.98791 2.79344 2027 ft 145 kts 196°
2026-05-06 10:27 41.97834 2.78986 1834 ft 141 kts 194°
2026-05-06 10:27 41.96880 2.78630 1650 ft 143 kts 195°
2026-05-06 10:27 41.95931 2.78269 1444 ft 140 kts 195°
2026-05-06 10:28 41.94986 2.77908 1219 ft 144 kts 196°
2026-05-06 10:28 41.94025 2.77538 996 ft 146 kts 193°
2026-05-06 10:28 41.93084 2.77187 854 ft 133 kts 194°
2026-05-06 10:28 41.92208 2.76858 668 ft 132 kts 194°
2026-05-06 10:29 41.91321 2.76520 491 ft 132 kts 194°
2026-05-06 10:29 41.90547 2.76227 454 ft 89 kts 195°
2026-05-06 10:29 41.90163 2.76082 443 ft 22 kts 196°
2026-05-06 10:29 41.90096 2.76090 437 ft 11 kts 130°
2026-05-06 10:30 41.90069 2.76208 425 ft 18 kts 105°
2026-05-06 10:30 41.90053 2.76282 424 ft 6 kts 106°
2026-05-06 10:30 41.90044 2.76322 415 ft 4 kts 105°
2026-05-06 10:30 41.90037 2.76356 421 ft 4 kts 113°
2026-05-06 10:31 41.90013 2.76369 423 ft 4 kts 185°
2026-05-06 10:31 41.89987 2.76360 413 ft 4 kts 196°
2026-05-06 10:31 41.89961 2.76350 419 ft 4 kts 196°
2026-05-06 10:31 41.89937 2.76340 414 ft 4 kts 195°
2026-05-06 10:32 41.89912 2.76331 420 ft 4 kts 195°
2026-05-06 10:32 41.89892 2.76348 417 ft 4 kts 123°
2026-05-06 10:32 41.89877 2.76378 421 ft 4 kts 124°
2026-05-06 10:32 41.89855 2.76394 423 ft 4 kts 168°
2026-05-06 10:33 41.89829 2.76390 423 ft 4 kts 193°
2026-05-06 10:33 41.89804 2.76381 422 ft 4 kts 192°
2026-05-06 10:33 41.89783 2.76396 419 ft 4 kts 128°
2026-05-06 10:33 41.89776 2.76428 423 ft 4 kts 106°
2026-05-06 10:34 41.89772 2.76447 419 ft 0 kts 105°
2026-05-06 10:34 41.89772 2.76448 420 ft 0 kts 105°